CAPE
3056 2910 2659 2381 2418 2246 1798 1236 2088 2199 1279 1307 1611 2207 2639 2644 2663 2910 2471 2536 1949 2470 2790 2207 2482 2800 2314 1871 1577 1881 1477 1678 1610 1799 1972 2751 3368 2384 1960 2447 2896 2190 1660
2943 3319 2778 2612 2298 1923 1772 1293 2386 2112 1046 27 45 1647 2692 3028 2975 2972 2831 2433 2247 2881 3010 3134 2506 1941 2849 2318 2570 1819 1236 2078 1657 1543 1439 1434 1666 2713 3400 2939 2795 1161 1447
3109 3070 2623 2351 2389 2148 2079 2113 2153 2824 1659 716 1004 2551 2893 2817 3083 3495 3174 2976 2373 2392 2145 2022 2316 2803 2268 2467 3029 2264 1895 1534 1884 1694 1168 986 724 1167 2613 2645 2875 2461 2287
3057 2987 2797 2561 2377 2310 2383 2218 1915 2638 2568 2371 2832 3001 2827 3100 3008 2774 2785 2839 3019 2449 2538 2476 2325 1729 2061 2065 1979 2427 1908 2036 1861 2020 1723 1535 1404 1075 2046 1567 1716 2068 1752
3514 3316 3203 2719 2799 2717 2945 2782 2642 2804 2439 2182 2658 2976 3182 3016 1793 2955 3029 2144 1941 2280 2540 2019 1911 1163 813 1165 1917 1994 1972 1500 1592 1362 1410 1698 1821 1325 1460 1723 1423 826 725
3754 3702 3634 2427 3143 2566 3115 2788 3037 2856 2940 2852 2954 2443 2172 1988 631 776 2937 2290 1612 1994 1871 2506 2412 1751 2038 1060 594 705 904 1827 1742 1695 1097 1451 1576 1329 1664 2205 1264 1280 1089
3750 3623 3278 3235 3065 2874 2962 2933 2649 2907 2647 2797 3029 2896 2947 2741 332 452 455 2199 2154 2352 2231 2237 1995 891 1046 2465 1558 422 147 416 286 1278 1436 1336 1398 1292 1869 1759 1444 1987 1720
4018 3656 3473 3481 3056 3061 2566 2952 2788 2864 2849 2917 2977 2895 2765 2514 412 294 297 1651 1839 2087 1915 2384 2672 2380 2102 2201 2239 1944 2157 2116 1649 670 840 1204 1327 1258 1188 1149 1308 1118 977
4147 3723 3576 3691 3330 3112 2981 3086 2884 3048 3200 2996 2901 2892 2953 2887 19 16 36 577 777 1482 1501 2071 2680 2531 1737 706 1729 1880 1680 1440 517 176 1070 1296 868 48 12 36 2 3 3
4294 4174 4076 3851 3533 3211 2809 2472 3152 3271 2900 2989 2954 3002 2617 2863 333 9 8 796 1411 1797 2417 2442 1390 1639 1069 274 1844 1697 1293 1298 1321 1234 889 132 48 74 0 53 295 179 57
4268 4316 4229 4101 3750 3683 3593 3258 3247 3173 2900 2910 2977 2838 2514 2072 752 0 0 1067 1987 1848 1405 1576 1747 174 3 1 15 1178 954 10 574 773 488 494 513 474 813 309 476 530 757
4298 4367 4205 4203 3794 3709 3786 3672 3475 2977 3114 3086 2816 2408 2142 1866 935 15 1 6 39 782 1151 1169 0 2 0 0 0 0 0 0 71 109 119 54 35 41 228 952 1323 1354 902
3559 3615 3934 3587 3781 3629 3685 3545 2980 2857 2125 2356 2395 2172 2038 2006 1350 33 1 2 1 2 857 172 52 0 0 1 2 1 1 0 11 0 0 0 69 77 119 59 871 992 1364
3252 3140 3102 3366 3292 3222 3048 3047 2474 2059 2001 2059 1938 1731 1702 1931 2162 80 5 0 1 0 0 0 0 0 0 19 0 0 0 14 21 19 45 31 95 29 5 6 10 59 336
3032 2654 3009 3213 2957 3105 3048 2135 1858 998 625 966 1232 1235 1563 1843 1993 876 348 327 379 160 222 747 180 196 100 85 8 29 13 63 29 29 22 31 27 30 32 100 77 32 23
2015 2508 2774 2921 3268 2886 2263 241 1 1 0 93 258 1325 20 159 0 57 13 0 27 0 249 720 406 304 307 452 352 70 0 0 24 30 52 53 31 56 67 65 70 99 86
139 2 92 1170 2324 2610 2191 1244 351 2 1 1 0 1 0 0 0 0 0 0 0 0 294 372 185 213 486 316 20 0 0 0 8 28 37 51 46 52 46 63 66 61 58
23 2 2 5 2 751 1705 1626 1182 331 198 0 0 0 2 2 1 0 0 0 1 0 137 119 173 238 415 124 4 0 0 4 19 25 32 34 24 23 16 40 34 22 14
28 62 12 0 1 7 564 1738 1713 1241 1517 909 0 0 0 1 1 1 1 191 288 159 94 135 404 167 18 0 0 0 0 8 5 15 27 18 35 32 15 5 4 0 0
0 0 1 0 0 0 6 849 1358 1601 1777 1422 337 94 0 0 0 0 0 23 104 101 66 221 219 123 20 0 9 17 3 2 7 8 10 4 1 3 4 7 5 5 9
73 0 3 0 0 0 2 0 756 1115 930 822 654 257 0 183 321 67 42 81 130 34 302 183 122 39 0 1 0 0 2 3 3 10 5 4 5 7 4 1 1 1 0
150 4 4 13 7 66 8 11 228 612 456 782 385 0 0 191 0 0 122 171 158 342 174 274 24 13 17 10 0 0 2 1 3 8 4 2 6 6 6 1 3 3 3
238 392 254 181 111 0 10 44 17 545 253 37 23 0 0 0 0 161 298 251 316 249 231 41 6 1 7 12 1 0 0 4 2 9 3 1 1 6 4 2 3 5 6
530 565 584 43 0 0 0 68 213 79 68 202 168 22 0 0 0 106 160 128 107 93 74 72 0 0 19 1 15 4 0 0 2 5 5 0 1 0 6 7 7 3 9
772 773 3 124 0 54 101 143 192 61 190 153 127 11 0 0 1 120 152 171 105 128 62 31 0 1 4 0 3 0 0 0 0 0 0 1 7 13 10 2 1 8 11
697 610 16 4 41 122 838 780 540 293 298 353 309 188 154 182 261 355 210 148 137 117 66 65 7 0 14 0 0 0 0 0 0 0 0 2 26 34 33 27 29 36 32
CIN
-0 -2 -1 -1 -0 -1 -16 -50 -20 -32 -144 -58 -27 -19 -14 -10 -15 -15 -23 -8 -26 -18 -9 -16 -6 -5 -37 -44 -54 -52 -51 -40 -42 -55 -55 -51 -23 -33 -42 -67 -38 -62 -57
-0 -2 -0 -0 -1 -0 -15 -48 -16 -28 -134 -247 -227 -25 -12 -9 -8 -12 -13 -4 -19 -10 -9 -6 -6 -1 -9 -31 -29 -45 -44 -46 -34 -38 -63 -86 -67 -51 -58 -49 -28 -15 -44
-1 -0 -0 -1 -0 -1 -3 -13 -19 -6 -19 -88 -34 -11 -4 -8 -7 -5 -4 -4 -9 -8 -14 -10 -16 -12 -18 -11 -16 -20 -31 -34 -35 -34 -61 -77 -64 -44 -17 -51 -44 -57 -24
-2 -4 -4 -4 -3 -0 -4 -19 -20 -10 -12 -12 -7 -6 -9 -5 -5 -6 -7 -10 -9 -8 -15 -15 -18 -42 -34 -37 -12 -24 -25 -33 -31 -24 -33 -52 -55 -90 -57 -54 -60 -59 -50
-5 -6 -8 -16 -5 -6 -6 -8 -7 -7 -12 -24 -7 -4 -3 -1 -8 -6 -7 -20 -23 -15 -14 -25 -16 -60 -36 -33 -30 -25 -17 -26 -35 -45 -42 -29 -34 -42 -42 -56 -55 -118 -89
-13 -5 -9 -49 -7 -8 -4 -6 -6 -4 -5 -7 -5 -9 -17 -7 -51 -32 -35 -20 -23 -8 -23 -10 -19 -40 -39 -26 -57 -46 -63 -29 -23 -21 -27 -22 -34 -56 -35 -14 -30 -20 -23
-30 -16 -21 -10 -7 -7 -5 -6 -8 -4 -6 -2 -1 -3 -2 -8 -98 -94 -58 -10 -9 -8 -15 -13 -8 -21 -59 -6 -22 -119 -209 -115 -133 -41 -16 -16 -12 -18 -10 -3 -12 -1 -0
-20 -9 -7 -3 -4 -5 -9 -4 -5 -3 -3 -1 -0 -1 -2 -3 -148 -145 -106 -29 -12 -3 -6 -4 -9 -6 -18 -10 -8 -12 -5 -9 -36 -92 -70 -56 -39 -22 -14 -8 -3 -4 -6
-6 -10 -3 -3 -2 -2 -2 -1 -3 -2 -5 -2 -1 -3 -2 -11 -275 -305 -203 -63 -47 -24 -14 -10 -5 -5 -8 -49 -16 -4 -4 -9 -6 -100 -55 -37 -33 -52 -17 -42 -13 -15 -42
-6 -4 -3 -3 -2 -11 -40 -63 -2 -2 -3 -6 -2 -2 -2 -6 -165 -282 -213 -39 -20 -7 -13 -17 -28 -35 -49 -95 -19 -5 -5 -5 -17 -24 -24 -107 -56 -126 -9 -130 -53 -38 -70
-5 -3 -4 -3 -1 -3 -1 -2 -1 -2 -2 -5 -4 -10 -7 -13 -123 -0 -0 -59 -16 -26 -14 -18 -51 -83 -246 -0 -64 -23 -15 -57 -35 -23 -24 -23 -28 -35 -46 -149 -113 -58 -16
-6 -5 -4 -3 -0 -0 -1 -1 -3 -8 -2 -1 -6 -6 -1 -28 -71 -180 -0 -37 -241 -82 -31 -54 -0 -0 -0 -0 -0 -0 -0 -0 -88 -63 -58 -85 -30 -189 -107 -73 -43 -28 -37
-11 -6 -5 -6 -0 -3 -1 -1 -2 -6 -37 -13 -0 -6 -2 -35 -82 -98 -0 -0 -0 -17 -36 -175 -162 -0 -0 -0 -0 -0 -0 -0 -225 -0 -0 -0 -182 -261 -211 -174 -31 -46 -31
-6 -10 -10 -7 -4 -7 -12 -3 -2 -11 -4 -5 -21 -23 -16 -14 -12 -253 -50 -0 -0 -0 -2 -0 -0 -0 -0 -141 -0 -0 -0 -75 -48 -32 -292 -80 -245 -344 -44 -44 -49 -169 -54
-13 -28 -18 -8 -5 -6 -8 -27 -17 -73 -87 -49 -24 -17 -10 -39 -37 -92 -159 -126 -92 -117 -64 -25 -92 -82 -149 -204 -100 -127 -120 -120 -30 -22 -22 -26 -33 -29 -25 -236 -262 -32 -28
-50 -14 -2 -3 -7 -8 -12 -347 -0 -0 -0 -252 -131 -24 -50 -21 -0 -70 -87 -0 -54 -0 -39 -11 -39 -78 -91 -60 -102 -237 -15 -0 -49 -25 -14 -12 -30 -15 -15 -10 -91 -252 -214
-447 -424 -238 -58 -14 -9 -2 -72 -202 -0 -0 -0 -0 -8 -0 -0 -0 -0 -0 -0 -0 -0 -90 -66 -136 -119 -60 -126 -306 -0 -0 -0 -2 -3 -8 -13 -15 -15 -23 -9 -14 -13 -14
-521 -152 -0 -0 -0 -53 -21 -28 -54 -200 -234 -0 -0 -0 -0 -0 -0 -0 -0 -0 -45 -0 -186 -178 -145 -131 -110 -244 -26 -0 -0 -19 -18 -16 -7 -7 -17 -11 -10 -8 -13 -9 -4
-518 -446 -216 -0 -0 -0 -45 -10 -3 -69 -20 -42 -0 -0 -0 -0 -0 -0 -0 -180 -106 -141 -200 -171 -78 -152 -140 -0 -0 -0 -0 -1 -3 -7 -4 -7 -5 -7 -15 -20 -22 -0 -0
-0 -0 -69 -0 -0 -0 -0 -24 -27 -54 -22 -22 -129 -130 -0 -0 -0 -0 -0 -356 -223 -213 -214 -107 -129 -202 -247 -0 -2 -2 -1 -3 -11 -7 -14 -12 -17 -13 -9 -7 -6 -6 -1
-353 -20 -375 -74 -0 -0 -51 -0 -4 -39 -23 -15 -55 -141 -0 -178 -101 -194 -268 -249 -211 -262 -87 -112 -198 -194 -0 -2 -0 -0 -1 -2 -9 -4 -9 -12 -9 -4 -7 -8 -1 -1 -0
-163 -99 -316 -340 -33 -2 -49 -87 -39 -49 -19 -15 -81 -0 -0 -106 -0 -0 -126 -147 -174 -100 -98 -83 -81 -88 -8 -14 -0 -0 -3 -9 -10 -7 -10 -12 -5 -5 -3 -2 -0 -0 -0
-77 -3 -19 -26 -82 -0 -84 -59 -106 -56 -144 -170 -119 -0 -0 -0 -0 -38 -52 -67 -71 -89 -83 -133 -66 -1 -1 -11 -3 -0 -0 -2 -4 -5 -13 -9 -5 -7 -1 -1 -1 -4 -2
-27 -36 -26 -121 -0 -0 -0 -240 -155 -98 -56 -23 -83 -40 -0 -0 -0 -35 -54 -71 -101 -102 -110 -124 -0 -0 -7 -1 -4 -10 -0 -0 -2 -8 -9 -3 -2 -2 -13 -10 -7 -21 -17
-28 -58 -155 -163 -0 -91 -97 -96 -17 -49 -22 -49 -81 -53 -0 -0 -2 -32 -30 -24 -55 -60 -77 -95 -0 -2 -2 -0 -3 -0 -0 -0 -0 -0 -0 -0 -5 -16 -24 -16 -2 -15 -17
-29 -90 -113 -152 -238 -221 -15 -18 -33 -42 -21 -17 -8 -32 -36 -28 -7 -9 -14 -30 -28 -27 -40 -26 -10 -1 -3 -0 -0 -0 -0 -0 -0 -0 -0 -5 -21 -16 -17 -34 -17 -14 -20
Wind_Speed
12 11 10 10 11 10 9 10 7 7 7 6 5 8 8 7 6 5 4 5 9 5 3 3 5 3 3 3 3 4 3 3 4 2 1 5 2 3 4 5 5 6 6
10 9 10 11 11 11 9 10 7 8 10 9 12 10 7 6 7 7 6 4 7 6 6 4 5 4 2 4 3 4 2 3 1 3 3 4 3 5 6 5 5 5 5
13 13 11 11 12 12 11 9 7 6 11 22 23 7 7 6 7 6 5 5 5 6 7 5 6 6 4 4 4 4 2 2 2 1 3 3 5 4 4 3 4 7 3
14 13 11 11 10 11 13 11 9 9 8 6 8 8 7 7 6 6 8 6 7 7 6 8 4 6 6 6 3 5 6 3 3 3 3 3 2 3 5 2 3 3 4
12 11 11 10 9 8 8 8 9 9 9 8 8 9 8 6 7 8 6 6 6 6 5 3 5 6 4 1 2 4 3 2 3 4 5 4 2 2 2 3 1 1 10
12 11 10 10 11 11 8 9 7 8 9 8 7 8 9 8 4 4 7 6 6 4 5 5 6 6 6 7 6 8 6 3 4 3 6 6 7 4 4 3 3 3 5
12 12 10 10 11 11 10 10 10 9 8 8 8 7 6 6 5 2 2 3 2 3 4 4 5 7 2 2 4 4 7 7 9 6 7 8 8 7 4 6 6 5 6
12 13 14 14 13 11 11 11 10 9 10 9 9 8 7 7 12 8 7 4 3 4 4 6 7 6 7 4 4 4 5 6 6 7 10 10 7 5 4 4 6 8 7
12 14 15 14 14 14 13 12 11 10 9 9 9 9 9 6 10 8 7 3 5 7 8 7 6 6 3 2 4 4 4 6 9 9 8 6 5 7 6 1 5 6 7
13 13 14 15 15 16 16 16 13 10 11 9 10 9 8 6 10 9 7 4 6 6 6 9 11 9 7 7 4 3 4 4 5 4 2 4 7 9 11 8 6 5 6
12 13 14 15 17 15 13 12 13 12 10 10 9 7 7 8 9 13 12 6 5 3 7 4 3 9 11 6 1 3 2 3 6 5 6 5 5 7 9 9 11 8 5
12 13 15 15 14 13 15 13 13 12 10 10 7 7 8 9 10 10 12 13 3 1 4 5 5 7 9 6 3 5 5 3 4 5 6 5 6 6 4 3 5 5 5
12 14 13 16 15 14 15 14 11 11 10 9 9 7 9 8 7 14 15 11 6 2 1 4 10 9 8 6 11 10 5 3 4 5 6 7 5 3 4 4 4 6 5
12 14 14 14 16 14 11 10 9 9 9 8 8 8 9 8 8 7 5 5 4 5 6 6 9 10 11 5 1 5 5 6 7 6 4 3 3 4 3 4 4 3 1
9 10 12 12 14 13 12 8 10 10 10 9 9 7 6 5 8 12 11 9 7 8 6 4 3 4 6 7 6 7 6 4 5 3 2 2 2 3 4 4 3 4 5
10 10 10 11 11 11 11 7 13 11 4 9 9 9 3 8 11 13 15 14 13 10 3 2 3 4 4 4 2 4 4 5 4 5 4 3 3 3 4 3 4 3 4
6 7 8 10 12 12 11 9 6 6 10 9 4 10 11 14 11 16 15 13 10 8 3 4 5 5 4 2 4 4 2 2 4 3 2 3 4 4 5 4 4 3 4
3 6 4 3 7 12 10 10 10 10 8 7 5 5 10 11 10 13 11 10 3 1 4 5 5 5 2 4 3 3 4 2 3 3 3 3 4 5 6 5 4 4 5
8 8 8 7 9 14 14 12 11 13 11 11 7 5 6 8 9 9 5 4 5 6 7 7 4 2 5 4 3 2 2 2 1 1 1 3 3 3 4 4 4 3 2
4 6 6 10 5 12 15 11 10 11 13 12 10 10 10 7 6 6 6 5 5 4 4 3 2 5 4 2 2 2 1 0 1 1 1 2 2 1 2 3 3 3 2
3 4 11 7 1 11 15 10 12 10 9 12 11 12 17 9 8 8 8 8 6 5 3 2 5 3 3 4 3 2 1 2 2 1 1 1 1 2 1 1 2 1 1
3 3 2 4 2 5 12 17 14 13 14 13 7 10 19 7 9 9 8 9 8 4 2 4 2 2 3 5 4 3 2 4 4 3 3 2 1 2 3 1 1 1 2
5 7 9 8 5 8 7 2 11 4 11 5 12 11 9 7 5 5 6 5 5 5 4 4 3 0 1 4 4 6 5 3 2 3 4 3 2 3 3 3 3 4 4
9 9 8 5 5 4 6 9 12 4 8 14 13 10 8 8 7 6 6 6 5 5 5 4 4 3 4 2 3 6 7 6 4 4 6 4 4 4 4 5 4 4 4
9 5 5 5 3 5 9 11 6 3 1 7 11 10 9 8 7 6 6 4 5 5 5 4 4 5 6 4 2 8 8 11 6 2 4 6 6 6 5 4 5 6 5
10 8 7 6 6 5 9 7 5 3 1 2 6 8 9 9 6 5 6 7 5 5 4 3 6 5 6 6 5 12 8 6 5 5 2 6 6 6 6 7 9 3 4
Wind_Direction
197 177 178 174 175 176 190 217 233 160 100 90 215 197 191 191 185 202 219 246 199 227 266 183 237 261 286 325 29 319 312 353 357 338 351 194 175 176 192 198 204 208 206
195 174 183 176 176 180 188 208 222 149 121 100 276 236 206 195 202 199 230 242 202 225 218 235 269 248 240 296 285 281 294 321 111 290 290 317 294 229 215 199 228 257 247
187 181 188 189 183 184 189 202 204 167 164 165 210 209 206 213 210 204 227 239 264 255 241 246 233 242 246 271 297 292 294 356 338 264 278 274 288 247 246 230 227 236 252
188 182 186 186 195 200 183 196 195 175 169 203 196 199 215 224 214 209 214 218 231 257 241 233 248 311 205 225 269 288 291 322 300 297 276 281 277 348 337 341 346 347 317
181 185 183 176 186 208 187 194 184 169 170 192 200 202 204 215 228 216 211 227 216 263 299 319 266 198 109 203 231 244 283 341 315 323 301 328 331 347 280 282 53 40 278
173 183 170 175 181 193 197 187 195 180 182 190 196 206 201 217 159 131 191 235 229 206 265 281 294 308 272 268 239 250 233 231 249 240 271 286 290 301 280 296 306 218 239
177 179 176 182 187 187 196 188 196 187 190 200 207 210 217 230 114 136 118 258 252 222 225 261 274 274 307 303 256 293 274 247 226 243 255 257 271 283 305 301 294 282 276
177 183 190 185 190 190 199 196 190 198 190 202 202 209 210 219 178 197 181 244 262 256 259 228 221 248 262 255 249 259 250 252 230 223 224 241 239 268 265 275 283 282 280
190 189 195 182 187 190 191 201 201 197 195 199 208 213 212 187 159 177 152 218 245 241 234 245 239 241 246 181 235 251 287 290 293 238 247 222 196 219 225 281 269 274 286
192 194 191 186 188 196 198 188 195 200 193 195 208 210 206 179 176 186 177 226 254 255 222 223 223 227 193 171 207 233 265 289 352 360 201 232 238 239 219 208 238 247 261
199 190 193 192 193 195 197 195 193 199 196 195 194 187 177 179 176 192 192 213 234 284 258 270 216 152 133 157 130 297 296 339 319 309 298 279 256 248 230 214 220 221 249
196 197 196 196 193 192 198 196 193 192 194 182 179 181 200 190 196 195 193 209 148 299 292 95 112 134 135 160 178 231 206 255 270 277 273 286 291 282 275 107 158 190 192
209 209 206 201 194 195 194 195 191 190 182 180 179 197 216 189 171 177 182 184 171 207 2 124 150 169 179 209 231 226 204 231 251 258 257 257 258 305 310 314 252 213 174
233 224 219 206 205 203 195 189 178 183 181 183 192 198 207 176 165 163 178 185 194 200 187 182 190 198 209 230 178 199 219 230 234 240 243 277 325 357 349 335 322 328 257
243 223 215 206 201 199 194 190 193 188 192 189 192 199 194 211 179 173 173 175 178 199 192 210 189 220 238 235 225 221 188 212 247 280 358 1 315 323 311 315 300 318 298
241 225 214 209 198 193 190 144 48 41 42 173 184 189 87 133 127 139 134 119 123 144 172 213 245 249 262 262 88 73 55 2 24 353 330 320 307 319 298 293 299 297 295
36 19 355 268 212 198 188 173 163 59 51 28 115 154 149 145 143 127 129 128 136 140 191 219 236 240 243 126 104 64 25 307 327 289 350 343 327 301 319 306 304 306 310
99 152 75 349 339 298 199 182 177 166 177 153 35 114 99 130 142 131 130 116 123 165 244 236 236 229 196 88 98 147 170 231 271 277 333 333 333 344 325 328 359 11 359
192 190 120 36 346 310 290 202 188 168 174 161 147 96 92 99 102 109 139 201 202 217 200 220 217 75 90 95 97 124 190 79 59 328 314 339 333 313 333 356 3 35 8
256 218 138 111 277 286 321 251 175 170 177 165 171 167 157 168 171 168 188 201 214 235 239 217 76 87 97 142 111 93 94 174 194 334 331 304 321 340 334 344 357 345 332
325 25 56 85 178 244 290 317 221 181 183 169 177 164 167 169 176 183 176 196 202 216 189 190 121 127 170 167 138 143 253 321 29 246 220 275 317 280 244 67 17 357 18
167 94 108 236 11 307 191 219 268 184 193 154 134 154 160 179 193 186 183 170 170 169 124 113 91 185 202 147 141 146 189 194 218 203 197 232 258 73 69 79 135 151 193
203 217 210 222 169 158 184 252 307 204 105 114 138 147 173 180 223 170 153 150 129 127 130 135 130 235 338 127 144 160 191 196 191 176 142 140 128 148 167 184 201 215 215
218 230 245 161 147 117 43 334 272 54 165 169 149 146 168 180 198 195 158 149 137 145 156 156 147 218 103 79 193 184 180 168 179 159 166 169 167 180 208 208 200 215 247
215 161 128 90 96 219 174 239 253 215 58 128 140 146 165 183 201 192 144 122 142 150 157 151 146 186 168 212 177 98 92 130 132 98 198 196 199 192 211 203 210 222 213
245 155 141 157 211 257 241 222 219 232 255 147 153 156 168 187 185 145 134 144 152 153 158 169 161 189 155 159 119 133 145 150 126 75 318 235 218 216 225 204 234 178 231